CW5752 Weather Reports


Display with metric or nautical units.
time (UTC)temp
F
wind
direction
speed
MPH
gust
MPH
rain 1hr
in
rain 24hr
in
rain mn
in
humidity
%
barometer
mb
20260502151521 58 74 0.0 4.0 0.00 0.00 0.00 60 1017.5
20260502150522 57 75 1.0 5.0 0.00 0.00 0.00 60 1017.4
20260502130542 50 91 0.0 5.0 0.00 0.00 0.00 78 1017.3
20260502123521 48 329 0.0 2.0 0.00 0.00 0.00 84 1017.2
20260502122536 47 329 0.0 2.0 0.00 0.00 0.00 85 1017.1
20260502121542 46 329 0.0 2.0 0.00 0.00 0.00 86 1017.1
20260502120521 46 329 0.0 2.0 0.00 0.00 0.00 86 1017.1
20260502115521 46 0.0 0.0 0.00 0.00 0.00 87 1017.1
20260502114521 45 0.0 0.0 0.00 0.00 0.00 88 1017.1
20260502113521 44 0.0 0.0 0.00 0.00 0.00 89 1017.0
20260502112536 45 0.0 0.0 0.00 0.00 0.00 90 1017.1
20260502111516 44 0.0 0.0 0.00 0.00 0.00 90 1017.0
20260502110522 43 0.0 0.0 0.00 0.00 0.00 91 1017.0
20260502105522 43 0.0 0.0 0.00 0.00 0.00 91 1016.9
20260502104521 43 0.0 0.0 0.00 0.00 0.00 91 1016.8
20260502103521 43 0.0 0.0 0.00 0.00 0.00 91 1016.8
20260502102522 43 0.0 0.0 0.00 0.00 0.00 90 1016.8
20260502101516 43 0.0 0.0 0.00 0.00 0.00 91 1016.9
20260502100522 44 0.0 0.0 0.00 0.00 0.00 90 1016.8
20260502090516 43 0.0 0.0 0.00 0.00 0.00 91 1016.7
20260502071521 43 0.0 0.0 0.00 0.00 0.00 89 1016.8
20260502070521 43 0.0 0.0 0.00 0.00 0.00 89 1016.7
20260502065517 43 0.0 0.0 0.00 0.00 0.00 88 1016.8
20260502064536 43 0.0 0.0 0.00 0.00 0.00 87 1016.7
20260502063522 43 0.0 0.0 0.00 0.00 0.00 85 1016.7
20260502062522 44 0.0 0.0 0.00 0.00 0.00 86 1016.7
20260502061521 44 0.0 0.0 0.00 0.00 0.00 85 1016.7
20260502060521 44 0.0 0.0 0.00 0.00 0.00 83 1016.7
20260502055522 44 0.0 0.0 0.00 0.00 0.00 83 1016.8
20260502054516 44 0.0 0.0 0.00 0.00 0.00 83 1016.8
20260502053521 44 0.0 0.0 0.00 0.00 0.00 82 1016.8
20260502052522 44 0.0 0.0 0.00 0.00 0.00 83 1016.9
20260502051542 44 0.0 0.0 0.00 0.00 0.00 83 1016.8
20260502050521 45 0.0 0.0 0.00 0.00 0.00 82 1016.8
20260502045540 45 0.0 0.0 0.00 0.00 0.00 82 1016.8
20260502044540 45 0.0 0.0 0.00 0.00 0.00 83 1016.8
20260502043540 46 0.0 0.0 0.00 0.00 0.00 83 1016.9
20260502042520 46 0.0 0.0 0.00 0.00 0.00 83 1017.0
20260502041641 46 0.0 0.0 0.00 0.00 0.00 82 1017.0
20260502040522 46 0.0 0.0 0.00 0.00 0.00 82 1017.1
20260502035535 47 0.0 0.0 0.00 0.00 0.00 81 1017.1
20260502034521 47 0.0 0.0 0.00 0.00 0.00 78 1017.1
20260502033523 47 0.0 0.0 0.00 0.00 0.00 80 1017.2
20260502032522 47 0.0 0.0 0.00 0.00 0.00 78 1017.2
20260502031522 48 0.0 0.0 0.00 0.00 0.00 77 1017.3
20260502030517 49 0.0 0.0 0.00 0.00 0.00 75 1017.5
20260502025522 49 0.0 0.0 0.00 0.00 0.00 74 1017.5
20260502024522 50 0.0 0.0 0.00 0.00 0.00 75 1017.4
20260502023522 50 0.0 0.0 0.00 0.00 0.00 75 1017.4
20260502022522 50 0.0 0.0 0.00 0.00 0.00 73 1017.3
20260502021542 50 0.0 0.0 0.00 0.00 0.00 73 1017.2
20260502020517 51 0.0 0.0 0.00 0.00 0.00 72 1017.0
20260502015520 51 0.0 0.0 0.00 0.00 0.00 64 1017.0
20260502014522 51 0.0 0.0 0.00 0.00 0.00 64 1016.8
20260502013542 52 0.0 0.0 0.00 0.00 0.00 61 1016.6
20260502012522 53 0.0 0.0 0.00 0.00 0.00 56 1016.3
20260502011542 53 0.0 0.0 0.00 0.00 0.00 61 1016.1
20260502010522 54 0.0 0.0 0.00 0.00 0.00 53 1016.0
20260502005517 54 0.0 0.0 0.00 0.00 0.00 53 1016.0
20260502004522 55 0.0 0.0 0.00 0.00 0.00 52 1016.0
20260502003522 56 0.0 0.0 0.00 0.00 0.00 52 1015.9
20260502002522 57 327 0.0 2.0 0.00 0.00 0.00 51 1015.8
20260502001522 58 0.0 0.0 0.00 0.00 0.00 49 1015.9
20260502000522 59 0.0 2.0 0.00 0.00 0.00 48 1015.8
20260501235522 61 327 0.0 3.0 0.00 0.00 0.00 41 1015.7
20260501234518 61 327 0.0 4.0 0.00 0.00 0.00 44 1015.6
20260501233522 61 334 1.0 6.0 0.00 0.00 0.00 40 1015.4
20260501232522 62 338 2.0 8.0 0.00 0.00 0.00 41 1015.4
20260501231522 62 327 1.0 5.0 0.00 0.00 0.00 40 1015.3
20260501230522 62 336 1.0 5.0 0.00 0.00 0.00 41 1015.1
20260501225522 62 336 2.0 7.0 0.00 0.00 0.00 41 1015.0
20260501224517 62 339 2.0 7.0 0.00 0.00 0.00 43 1015.1
20260501223517 63 300 1.0 5.0 0.00 0.00 0.00 41 1015.3
20260501222522 62 340 2.0 5.0 0.00 0.00 0.00 40 1015.5
20260501221522 62 322 2.0 9.0 0.00 0.00 0.00 40 1015.6
20260501220542 61 331 3.0 7.0 0.00 0.00 0.00 41 1015.7
20260501215520 61 307 1.0 4.0 0.00 0.00 0.00 41 1015.8
20260501214522 61 327 2.0 6.0 0.00 0.00 0.00 41 1015.9
20260501213537 62 341 3.0 8.0 0.00 0.00 0.00 42 1015.9
20260501212522 63 343 3.0 9.0 0.00 0.00 0.00 39 1016.1
20260501211522 63 348 2.0 8.0 0.00 0.00 0.00 45 1016.2
20260501210522 62 331 2.0 6.0 0.00 0.00 0.00 44 1016.3
20260501205522 62 322 4.0 7.0 0.00 0.00 0.00 42 1016.7
20260501204522 60 277 2.0 12.0 0.00 0.00 0.00 41 1016.7
20260501203517 62 310 4.0 7.0 0.00 0.00 0.00 44 1016.9
20260501202517 61 314 3.0 7.0 0.00 0.00 0.00 44 1017.1
20260501201522 62 345 2.0 8.0 0.00 0.00 0.00 44 1017.2
20260501200522 63 331 3.0 8.0 0.00 0.00 0.00 42 1017.3
20260501195542 63 325 1.0 6.0 0.00 0.00 0.00 46 1017.6
20260501194522 63 339 4.0 14.0 0.00 0.00 0.00 42 1017.8
20260501193522 64 311 2.0 9.0 0.00 0.00 0.00 49 1017.8
20260501192517 62 293 3.0 9.0 0.00 0.00 0.00 45 1017.8
20260501191522 64 318 2.0 6.0 0.00 0.00 0.00 48 1017.8
20260501190522 62 341 4.0 10.0 0.00 0.00 0.00 47 1017.7
20260501185522 63 338 2.0 8.0 0.00 0.00 0.00 48 1017.7
20260501184522 62 335 4.0 7.0 0.00 0.00 0.00 48 1017.7
20260501183522 62 323 2.0 8.0 0.00 0.00 0.00 46 1017.7
20260501182542 62 330 3.0 9.0 0.00 0.00 0.00 48 1017.7
20260501181517 62 324 4.0 7.0 0.00 0.00 0.00 44 1017.8
20260501180522 62 333 2.0 7.0 0.00 0.00 0.00 43 1017.8
20260501175522 61 329 2.0 11.0 0.00 0.00 0.00 48 1018.0
20260501174522 62 334 4.0 10.0 0.00 0.00 0.00 48 1018.1
20260501173522 61 327 2.0 9.0 0.00 0.00 0.00 46 1018.2
20260501172522 61 331 1.0 6.0 0.00 0.00 0.00 43 1018.1
20260501171517 61 326 2.0 9.0 0.00 0.00 0.00 45 1018.1
20260501170522 60 330 1.0 11.0 0.00 0.00 0.00 45 1018.0
20260501165522 60 336 5.0 10.0 0.00 0.00 0.00 44 1017.9
20260501164542 60 314 5.0 9.0 0.00 0.00 0.00 47 1018.0
20260501163542 60 324 3.0 11.0 0.00 0.00 0.00 48 1018.1
20260501162602 59 334 4.0 9.0 0.00 0.00 0.00 48 1018.1
20260501161522 59 322 4.0 11.0 0.00 0.00 0.00 49 1018.1
20260501160517 58 342 4.0 13.0 0.00 0.00 0.00 46 1018.0
20260501155522 59 315 4.0 10.0 0.00 0.00 0.00 49 1018.0
20260501154522 58 345 4.0 10.0 0.00 0.00 0.00 47 1018.0
20260501153522 58 309 3.0 8.0 0.00 0.00 0.00 51 1017.9